Weather History for KOCF - February, 2013

Change the Weather History Date:

Thursday, February 21, 2013

  Actual Average Record
Temperature  
Mean Temperature 63 °F -  
Max Temperature 80 °F 71 °F - (-1)
Min Temperature 46 °F 47 °F - (-1)
Degree Days  
Heating Degree Days 2    
Growing Degree Days 13 (Base 50)    
Moisture  
Dew Point 49 °F    
Average Humidity 74    
Maximum Humidity 87    
Minimum Humidity 45    
Precipitation  
Precipitation 0.00 in - - ()
Sea Level Pressure  
Sea Level Pressure 30.08 in    
Wind  
Wind Speed 3 mph (NE)    
Max Wind Speed 12 mph    
Max Gust Speed -    
Visibility 10 miles    
Events      
Averages and records for this station are not official NWS values.
T = Trace of Precipitation, MM = Missing Value Source: NWS Daily Summary

Daily Weather History Graph

Daily Weather History Graph

Search for Another Location

Airport or City:

Trip Planner

Search our weather history database for the weather conditions in past years. The results will help you decide how hot, cold, wet, or windy it might be!

Date:

Astronomy

Feb. 21, 2013 Rise Set
Actual Time 7:02 AM EST 6:23 PM EST
Civil Twilight 6:38 AM EST 6:47 PM EST
Nautical Twilight 6:10 AM EST 7:14 PM EST
Astronomical Twilight 5:42 AM EST 7:42 PM EST
Moon 2:48 PM EST (2/21) 3:53 AM EST (2/21)
Length of Visible Light 12h 09m
Length of Day
11h 21m
Waxing Gibbous, 83% of the Moon is Illuminated
Feb 21
Waxing Gibbous
Feb 25
Full
Mar 4
Last Quarter
Mar 11
New
Mar 19
First Quarter

Hourly Weather History & Observations

Time (EST) Temp. Windchill Dew Point Humidity Pressure Visibility Wind Dir Wind Speed Gust Speed Precip Events Conditions
12:15 AM 51.8 °F - 44.6 °F 76% 30.11 in 10.0 mi Calm Calm - N/A   Clear
12:35 AM 48.2 °F - 42.8 °F 82% 30.10 in 10.0 mi North 4.6 mph - N/A   Clear
12:55 AM 48.2 °F - 42.8 °F 82% 30.10 in 10.0 mi North 4.6 mph - N/A   Clear
1:15 AM 46.4 °F 43.5 °F 42.8 °F 87% 30.10 in 10.0 mi North 5.8 mph - N/A   Clear
1:35 AM 46.4 °F 43.5 °F 42.8 °F 87% 30.11 in 10.0 mi North 5.8 mph - N/A   Clear
1:55 AM 48.2 °F - 44.6 °F 87% 30.10 in 10.0 mi Calm Calm - N/A   Clear
2:15 AM 48.2 °F - 44.6 °F 87% 30.10 in 10.0 mi Calm Calm - N/A   Clear
2:35 AM 48.2 °F - 44.6 °F 87% 30.09 in 10.0 mi Calm Calm - N/A   Clear
2:55 AM 48.2 °F - 44.6 °F 87% 30.09 in 10.0 mi Calm Calm - N/A   Clear
3:15 AM 48.2 °F - 42.8 °F 82% 30.09 in 10.0 mi Calm Calm - N/A   Clear
3:35 AM 46.4 °F 44.3 °F 42.8 °F 87% 30.08 in 10.0 mi NNE 4.6 mph - N/A   Clear
3:55 AM 48.2 °F - 42.8 °F 82% 30.08 in 10.0 mi NE 4.6 mph - N/A   Clear
4:15 AM 46.4 °F 45.2 °F 42.8 °F 87% 30.08 in 10.0 mi NNE 3.5 mph - N/A   Clear
4:35 AM 46.4 °F - 42.8 °F 87% 30.08 in 10.0 mi Calm Calm - N/A   Clear
4:55 AM 46.4 °F 45.2 °F 42.8 °F 87% 30.08 in 10.0 mi NE 3.5 mph - N/A   Clear
5:15 AM 46.4 °F 45.2 °F 42.8 °F 87% 30.08 in 10.0 mi NE 3.5 mph - N/A   Clear
5:35 AM 46.4 °F 45.2 °F 42.8 °F 87% 30.08 in 10.0 mi NE 3.5 mph - N/A   Clear
5:55 AM 46.4 °F - 41.0 °F 81% 30.08 in 10.0 mi Calm Calm - N/A   Clear
6:15 AM 46.4 °F 45.2 °F 42.8 °F 87% 30.09 in 10.0 mi NE 3.5 mph - N/A   Clear
6:50 AM 46.4 °F 45.2 °F 41.0 °F 81% 30.10 in - NNE 3.5 mph - N/A   Partly Cloudy
7:50 AM 48.2 °F - 42.8 °F 82% 30.12 in 10.0 mi NNE 3.5 mph - N/A   Clear
8:50 AM 57.2 °F - 44.6 °F 63% 30.14 in 10.0 mi ENE 4.6 mph - N/A   Clear
9:50 AM 64.4 °F - 48.2 °F 56% 30.14 in 10.0 mi ENE 4.6 mph - N/A   Clear
11:50 AM 73.4 °F - 57.2 °F 57% 30.11 in 10.0 mi South 4.6 mph - N/A   Clear
1:50 PM 78.8 °F - 57.2 °F 47% 30.05 in 10.0 mi SSW 11.5 mph - N/A   Scattered Clouds
2:50 PM 78.8 °F - 57.2 °F 47% 30.03 in 10.0 mi SSW 9.2 mph - N/A   Mostly Cloudy
3:50 PM 80.6 °F - 57.2 °F 45% 30.01 in 10.0 mi South 9.2 mph - N/A   Scattered Clouds
4:50 PM 80.6 °F - 57.2 °F 45% 30.00 in 10.0 mi South 6.9 mph - N/A   Scattered Clouds
5:50 PM 78.8 °F - 57.2 °F 47% 30.01 in 10.0 mi SSE 5.8 mph - N/A   Scattered Clouds
6:50 PM 73.4 °F - 57.2 °F 57% 30.02 in 10.0 mi ENE 9.2 mph - N/A   Mostly Cloudy
7:55 PM 69.8 °F - 55.4 °F 60% 30.05 in 10.0 mi Calm Calm - N/A   Clear
8:15 PM 68.0 °F - 55.4 °F 64% 30.05 in 10.0 mi Calm Calm - N/A   Clear
8:35 PM 66.2 °F - 55.4 °F 68% 30.06 in 10.0 mi Calm Calm - N/A   Clear
8:55 PM 66.2 °F - 55.4 °F 68% 30.06 in 10.0 mi Calm Calm - N/A   Clear
9:15 PM 66.2 °F - 57.2 °F 73% 30.06 in 10.0 mi East 3.5 mph - N/A   Clear
9:35 PM 64.4 °F - 57.2 °F 77% 30.06 in 10.0 mi Calm Calm - N/A   Clear
9:55 PM 64.4 °F - 55.4 °F 73% 30.07 in 10.0 mi NE 3.5 mph - N/A   Clear
10:15 PM 64.4 °F - 55.4 °F 73% 30.07 in 10.0 mi Calm Calm - N/A   Clear
10:35 PM 62.6 °F - 55.4 °F 77% 30.06 in 10.0 mi NE 3.5 mph - N/A   Clear
10:55 PM 62.6 °F - 55.4 °F 77% 30.06 in 10.0 mi Calm Calm - N/A   Clear
11:15 PM 60.8 °F - 55.4 °F 82% 30.06 in 10.0 mi Calm Calm - N/A   Scattered Clouds
11:35 PM 60.8 °F - 55.4 °F 82% 30.06 in 10.0 mi Calm Calm - N/A   Mostly Cloudy
11:55 PM 60.8 °F - 55.4 °F 82% 30.06 in 10.0 mi Calm Calm - N/A   Scattered Clouds